User: anonymous   Login
Location: Dillon
(41.1766°N, 107.0923°W)
Time: 02:10:23
(UTC+00:00)
Language:

PSLV DEB - Orbit

View from above orbital plane
View from above orbital plane
View from above satellite
View from above satellite

Ground track
Ground track

The orbit data is extracted from the following two-line orbital elements,

1 27130U 01049CA  22343.48259993  .00001179  00000-0  16779-3 0  9991
2 27130  98.2520 346.2706 0015161 289.0540 232.2336 14.78753076127954
Epoch (UTC): 09 December 2022 11:34:56
Eccentricity: 0.0015161
inclination: 98.2520°
perigee height: 622 km
apogee height: 644 km
right ascension of ascending node: 346.2706°
argument of perigee: 289.0540°
revolutions per day: 14.78753076
mean anomaly at epoch: 232.2336°
orbit number at epoch: 12795

The dashed part of the orbit path shows where the satellite is in the earth's shadow,  

DLR